(70914) = 1999 VA194 = 2001 FR68

Discovered at Socorro on 1999-11-03 by LINEAR.

Orbit

Orbit type: Main Belt

Note: WebGL enabled browser required.

epoch2023-09-13.0
epoch JD2460200.5
perihelion date2020-12-27.87560
perihelion JD2459211.37560
argument of perihelion (°)53.10806
ascending node (°)33.51868
inclination (°)8.66214
eccentricity0.1099245
perihelion distance (AU)2.2997797
Tisserand w.r.t. Jupiter3.4
ΔV w.r.t. Earth (km/sec)9.9
semimajor axis (AU)2.5838030
mean anomaly (°)234.72841
mean daily motion (°/day)0.23730930
aphelion distance (AU)2.868
period (years)4.15
P-vector [x]0.06387799
P-vector [y]0.86100177
P-vector [z]0.50457463
Q-vector [x]-0.99448624
Q-vector [y]0.01278409
Q-vector [z]0.10408502
absolute magnitude15.76
phase slope0.15
uncertainty0
referenceMPO 776990
observations used753
oppositions17
arc length (days)11123
first opposition used1993
last opposition used2023
residual rms (arc-secs)0.74
perturbers coarse indicatorM-v
perturbers precise indicator003Ek
first observation date used1993-05-18.0
last observation date used2023-10-31.0
computer nameMPCLINUX
JD of orbit computation2456847.667745
perihelion JD uncertainty (days)1.4634E-04
argument of perihelion uncertainty (°)5.0536E-05
ascending node uncertainty (°)3.5458E-05
inclination uncertainty (°)6.2917E-06
eccentricity uncertainty 4.4362E-08
perihelion distance uncertainty (AU)1.1176E-07
Minimum Orbit Intersection Distances (in AU)
for orbit epoch: 2460200.5, reference: E2023-V03
Mercury1.99153
Venus1.58617
Earth1.32604
Mars0.73921
Jupiter2.36052
Saturn6.78319
Uranus15.888
Neptune27.3434

Observations

772 total observations over interval: 1993 05 18.20428 – 2023 10 31.217568
These data are available for download (format description).

Date (UT) J2000 RA J2000 Dec Magn Location Ref
1993 05 18.20428 14 15 05.62 -16 09 37.3 20.2 V 691 – Steward Observatory, Kitt Peak-Spacewatch MPS 77871
1993 05 18.22671 14 15 04.46 -16 09 35.4 20.1 V 691 – Steward Observatory, Kitt Peak-Spacewatch MPS 77871
1993 05 18.24905 14 15 03.30 -16 09 33.1 20.3 V 691 – Steward Observatory, Kitt Peak-Spacewatch MPS 77871
1999 10 12.27710 03 35 56.60 +21 17 33.5 18.8   704 – Lincoln Laboratory ETS, New Mexico MPS 20879
1999 10 12.29077 03 35 56.14 +21 17 36.5 19.0   704 – Lincoln Laboratory ETS, New Mexico MPS 20879
1999 10 12.30442 03 35 55.68 +21 17 39.2 19.3   704 – Lincoln Laboratory ETS, New Mexico MPS 20879
1999 10 12.31858 03 35 55.29 +21 17 41.4 19.4   704 – Lincoln Laboratory ETS, New Mexico MPS 20879
1999 10 12.33237 03 35 54.83 +21 17 44.2 19.9   704 – Lincoln Laboratory ETS, New Mexico MPS 20879
1999 11 03.33457 03 18 52.17 +22 04 38.3 18.3   704 – Lincoln Laboratory ETS, New Mexico MPS 15590
1999 11 03.35067 03 18 51.12 +22 04 39.0 18.7   704 – Lincoln Laboratory ETS, New Mexico MPS 15590
1999 11 03.36674 03 18 50.07 +22 04 39.8 18.7   704 – Lincoln Laboratory ETS, New Mexico MPS 15590
1999 11 03.38281 03 18 49.07 +22 04 40.4 18.3   704 – Lincoln Laboratory ETS, New Mexico MPS 15590
1999 11 04.34859 03 17 49.46 +22 05 40.7 18.3 R 703 – Catalina Sky Survey MPS 15590
1999 11 04.36531 03 17 48.31 +22 05 42.1 18.6 R 703 – Catalina Sky Survey MPS 15590
1999 11 04.38203 03 17 47.22 +22 05 42.8 18.6 R 703 – Catalina Sky Survey MPS 15590
1999 11 04.39869 03 17 46.19 +22 05 44.2 18.7 R 703 – Catalina Sky Survey MPS 15590
1999 12 05.13453 02 46 46.47 +22 01 47.8 18.8 R 703 – Catalina Sky Survey MPS 29476
1999 12 05.14686 02 46 45.77 +22 01 48.9 19.3 R 703 – Catalina Sky Survey MPS 29476
1999 12 05.15918 02 46 45.43 +22 01 45.6 19.3 R 703 – Catalina Sky Survey MPS 29476
1999 12 05.17155 02 46 44.35 +22 01 49.5 19.2 R 703 – Catalina Sky Survey MPS 29476
1999 12 08.25717 02 44 32.07 +22 00 13.9 18.9   704 – Lincoln Laboratory ETS, New Mexico MPS 29476
1999 12 08.26959 02 44 31.56 +22 00 12.7 19.2   704 – Lincoln Laboratory ETS, New Mexico MPS 29476
1999 12 08.28202 02 44 31.01 +22 00 13.2 19.1   704 – Lincoln Laboratory ETS, New Mexico MPS 29476
1999 12 08.29440 02 44 30.54 +22 00 11.6 19.6   704 – Lincoln Laboratory ETS, New Mexico MPS 29476
1999 12 08.30678 02 44 29.95 +22 00 12.8 19.4   704 – Lincoln Laboratory ETS, New Mexico MPS 29476
2001 03 18.38442 12 53 14.38 +01 13 23.3 19.6 V 691 – Steward Observatory, Kitt Peak-Spacewatch MPS 28384
2001 03 18.39216 12 53 13.97 +01 13 24.8 19.6 V 691 – Steward Observatory, Kitt Peak-Spacewatch MPS 28384
2001 03 18.39980 12 53 13.55 +01 13 26.3 19.4 V 691 – Steward Observatory, Kitt Peak-Spacewatch MPS 28384
2001 03 19.31108 12 52 24.82 +01 16 18.8 18.8   704 – Lincoln Laboratory ETS, New Mexico MPS 28384
2001 03 19.32431 12 52 24.11 +01 16 21.2 19.1   704 – Lincoln Laboratory ETS, New Mexico MPS 28384
2001 03 19.33015 12 52 23.89 +01 16 22.3 19.4   704 – Lincoln Laboratory ETS, New Mexico MPS 28384
2001 03 19.33756 12 52 23.38 +01 16 23.9 19.0   704 – Lincoln Laboratory ETS, New Mexico MPS 28384
2001 03 19.34600 12 52 22.92 +01 16 26.9 19.9   704 – Lincoln Laboratory ETS, New Mexico MPS 28384
2001 03 19.35076 12 52 22.64 +01 16 26.8 19.0   704 – Lincoln Laboratory ETS, New Mexico MPS 28384
2001 03 19.35912 12 52 22.17 +01 16 29.3 19.4   704 – Lincoln Laboratory ETS, New Mexico MPS 28384
2001 03 19.36402 12 52 21.88 +01 16 29.3 19.6   704 – Lincoln Laboratory ETS, New Mexico MPS 28384
2001 03 26.30329 12 45 53.09 +01 38 05.8 19.3   704 – Lincoln Laboratory ETS, New Mexico MPS 28384
2001 03 26.31576 12 45 52.43 +01 38 08.1 19.3   704 – Lincoln Laboratory ETS, New Mexico MPS 28384
2001 03 26.32824 12 45 51.66 +01 38 10.6 19.1   704 – Lincoln Laboratory ETS, New Mexico MPS 28384
2001 03 26.34069 12 45 50.91 +01 38 13.2 19.0   704 – Lincoln Laboratory ETS, New Mexico MPS 28384
2001 03 26.35316 12 45 50.18 +01 38 15.6 18.7   704 – Lincoln Laboratory ETS, New Mexico MPS 28384
2001 03 29.28979 12 43 00.49 +01 46 54.0 18.6   704 – Lincoln Laboratory ETS, New Mexico MPS 28384
2001 03 29.30475 12 42 59.50 +01 46 57.2 19.0   704 – Lincoln Laboratory ETS, New Mexico MPS 28384
2001 03 29.32102 12 42 58.51 +01 46 59.5 19.3   704 – Lincoln Laboratory ETS, New Mexico MPS 28384
2003 09 19.61342 02 15 34.90 +10 16 00.0 21.0   608 – Haleakala-AMOS MPS 85054
2003 09 19.62363 02 15 34.61 +10 16 00.0 21.0   608 – Haleakala-AMOS MPS 85054
2003 09 19.63451 02 15 34.32 +10 16 00.1 21.1   608 – Haleakala-AMOS MPS 85054
2003 09 26.29322 02 12 14.08 +10 18 21.3 18.6   704 – Lincoln Laboratory ETS, New Mexico MPS 86070
2003 09 26.30581 02 12 13.62 +10 18 21.1 18.6   704 – Lincoln Laboratory ETS, New Mexico MPS 86070
2003 09 26.31844 02 12 13.13 +10 18 20.4 19.3   704 – Lincoln Laboratory ETS, New Mexico MPS 86070
2003 09 26.33115 02 12 12.66 +10 18 20.5 19.3   704 – Lincoln Laboratory ETS, New Mexico MPS 86070
2003 09 26.34389 02 12 12.18 +10 18 20.6 19.5   704 – Lincoln Laboratory ETS, New Mexico MPS 86070
2003 09 29.29347 02 10 19.82 +10 18 06.4 18.9 C 704 – Lincoln Laboratory ETS, New Mexico MPS 290987
2003 09 29.32100 02 10 18.75 +10 18 05.9 18.4 C 704 – Lincoln Laboratory ETS, New Mexico MPS 290987
2003 10 16.37931 01 55 45.76 +10 04 52.2 19.3 V 691 – Steward Observatory, Kitt Peak-Spacewatch MPS 87276
2003 10 16.40979 01 55 43.89 +10 04 49.7 19.0 V 691 – Steward Observatory, Kitt Peak-Spacewatch MPS 87276
2003 10 16.43771 01 55 42.18 +10 04 47.6 18.9 V 691 – Steward Observatory, Kitt Peak-Spacewatch MPS 87276
2003 10 21.22658 01 50 53.61 +09 58 45.3 18.8 R 699 – Lowell Observatory-LONEOS MPS 87716
2003 10 21.24652 01 50 52.33 +09 58 44.2   699 – Lowell Observatory-LONEOS MPS 87716
2003 10 21.26656 01 50 50.99 +09 58 42.8   699 – Lowell Observatory-LONEOS MPS 87716
2003 10 21.28593 01 50 49.81 +09 58 40.4 18.3   644 – Palomar Mountain/NEAT MPS 87716
2003 10 21.28657 01 50 49.77 +09 58 40.9 19.2   704 – Lincoln Laboratory ETS, New Mexico MPS 87716
2003 10 21.28659 01 50 49.73 +09 58 40.9   699 – Lowell Observatory-LONEOS MPS 87716
2003 10 21.29859 01 50 48.93 +09 58 39.8 19.2   704 – Lincoln Laboratory ETS, New Mexico MPS 87716
2003 10 21.31078 01 50 48.18 +09 58 39.4 19.0   704 – Lincoln Laboratory ETS, New Mexico MPS 87716
2003 10 21.31096 01 50 48.22 +09 58 38.5 18.1   644 – Palomar Mountain/NEAT MPS 87716
2003 10 21.32258 01 50 47.44 +09 58 37.5 19.0   704 – Lincoln Laboratory ETS, New Mexico MPS 87716
2003 10 21.33429 01 50 46.64 +09 58 37.6 18.9   704 – Lincoln Laboratory ETS, New Mexico MPS 87716
2003 10 21.34351 01 50 46.16 +09 58 35.8 17.9   644 – Palomar Mountain/NEAT MPS 87716
2003 10 23.27257 01 48 47.91 +09 56 05.2 17.9   704 – Lincoln Laboratory ETS, New Mexico MPS 87716
2003 10 23.28504 01 48 47.10 +09 56 04.1 17.6   704 – Lincoln Laboratory ETS, New Mexico MPS 87716
2003 10 23.29722 01 48 46.32 +09 56 03.2 18.4   704 – Lincoln Laboratory ETS, New Mexico MPS 87716
2003 10 23.30940 01 48 45.56 +09 56 02.2 18.2   704 – Lincoln Laboratory ETS, New Mexico MPS 87716
2003 10 23.32150 01 48 44.77 +09 56 01.4 18.1   704 – Lincoln Laboratory ETS, New Mexico MPS 87716
2003 10 26.27844 01 45 43.42 +09 52 11.9 18.3 V 703 – Catalina Sky Survey MPS 87716
2003 10 26.29204 01 45 42.57 +09 52 10.7 18.6 V 703 – Catalina Sky Survey MPS 87716
2003 10 26.30560 01 45 41.63 +09 52 08.5 18.3 V 703 – Catalina Sky Survey MPS 87716
2003 10 26.31917 01 45 40.87 +09 52 08.9 19.0 V 703 – Catalina Sky Survey MPS 87716
2003 10 28.20779 01 43 45.85 +09 49 46.1 18.6   704 – Lincoln Laboratory ETS, New Mexico MPS 89273
2003 10 28.22049 01 43 45.12 +09 49 45.4 19.4   704 – Lincoln Laboratory ETS, New Mexico MPS 89273
2003 10 28.23296 01 43 44.28 +09 49 44.4 19.1   704 – Lincoln Laboratory ETS, New Mexico MPS 89273
2003 10 28.24571 01 43 43.51 +09 49 43.4 19.3   704 – Lincoln Laboratory ETS, New Mexico MPS 89273
2003 10 28.25766 01 43 42.77 +09 49 41.8 19.4   704 – Lincoln Laboratory ETS, New Mexico MPS 89273
2003 10 28.42020 01 43 33.00 +09 49 30.8 19.6   608 – Haleakala-AMOS MPS 89273
2003 10 28.43100 01 43 32.29 +09 49 30.6 19.5   608 – Haleakala-AMOS MPS 89273
2003 10 28.44194 01 43 31.59 +09 49 29.7 19.5   608 – Haleakala-AMOS MPS 89273
